Wind_Speed
16 16 17 17 17 17 17 17 16 16 16 16 17 18 19 19 19 20 21 21 21 21 21 21 20 20 19 18 18 17 16 15 14 13 12 10 8 6 4 3 2 3 6 8
16 16 16 17 17 17 17 17 16 16 16 16 17 18 19 20 20 20 21 21 21 21 21 21 21 21 20 20 19 19 18 17 17 16 14 13 11 9 8 7 6 5 5 6
16 16 15 16 16 16 16 16 15 16 16 16 17 17 18 19 19 20 20 20 20 21 21 21 21 21 21 21 20 19 19 18 18 17 16 15 14 13 11 10 9 8 7 7
15 16 15 15 15 15 15 15 14 14 15 15 16 16 17 17 18 19 19 20 20 20 20 21 21 21 21 21 20 20 20 20 20 19 18 17 16 16 15 13 12 11 9 9
14 15 15 14 13 13 14 14 13 13 13 14 14 15 16 16 16 17 17 18 19 19 20 20 21 21 21 21 21 20 20 19 19 19 18 18 18 17 16 15 15 14 12 11
12 13 14 13 13 12 12 13 13 12 12 12 13 14 14 15 15 16 16 16 16 17 18 19 19 20 20 20 20 20 20 19 19 19 19 19 19 18 17 17 16 16 14 13
9 10 12 12 12 12 11 11 11 12 12 11 11 12 12 13 13 14 14 14 15 15 16 17 18 18 19 19 20 20 19 19 19 19 19 19 19 19 18 18 17 17 16 15
7 8 9 10 11 11 10 10 10 10 10 11 11 11 11 12 12 12 13 13 14 14 15 15 16 17 18 19 19 20 19 19 19 20 20 20 20 20 19 19 19 18 17 17
5 6 7 8 8 9 9 9 9 8 8 8 9 9 9 10 10 11 11 12 12 13 13 14 15 16 17 18 19 20 20 19 19 20 20 20 21 21 21 20 20 19 19 18
6 6 6 6 6 7 7 7 7 7 7 7 7 8 8 8 9 9 10 11 11 12 12 13 14 14 15 17 18 19 20 20 20 20 20 21 21 21 21 22 22 21 20 19
8 7 7 6 6 6 6 6 6 6 6 6 6 7 7 8 8 9 9 9 10 11 11 12 12 13 14 15 17 18 19 20 20 20 20 20 21 21 21 22 23 23 22 20
10 9 9 8 8 7 7 6 6 6 6 6 6 6 6 7 8 8 8 9 9 10 10 10 11 11 12 14 15 16 18 19 20 20 20 20 21 21 21 21 22 23 23 22
13 12 11 11 10 10 9 9 8 7 7 7 6 6 6 7 7 7 8 8 9 9 9 9 10 10 11 11 13 14 16 17 18 19 19 20 20 20 20 21 21 22 23 23
16 15 14 14 13 13 12 11 11 10 9 8 8 7 7 7 7 7 8 8 8 9 9 9 9 9 9 10 10 12 13 14 16 17 18 18 19 19 19 20 20 21 21 22
19 18 17 16 16 16 15 15 14 13 12 11 10 9 9 9 8 8 8 8 8 8 8 8 9 9 9 9 9 9 10 11 13 14 15 16 16 17 17 18 18 19 19 20
22 21 21 20 19 19 18 18 17 16 15 14 13 12 12 11 10 10 9 9 8 8 8 8 8 8 8 8 8 8 9 9 10 11 12 13 14 14 15 15 16 16 17 17
26 25 24 23 23 22 21 21 20 20 19 18 17 16 15 14 13 12 11 10 9 9 9 8 8 8 8 8 8 8 8 8 9 9 9 10 11 11 12 12 13 13 13 14
30 29 28 27 26 25 25 24 24 23 22 21 20 19 18 17 16 15 14 13 12 11 11 10 9 9 9 9 9 8 8 8 8 8 8 8 8 9 9 9 10 10 10 10
35 34 32 31 30 29 28 27 27 26 25 24 23 22 22 20 19 18 17 16 15 14 13 13 12 11 11 10 10 9 9 9 8 8 8 8 8 8 7 7 8 8 8 8
41 39 37 36 34 33 32 31 30 29 28 28 26 26 25 24 22 21 20 19 18 17 16 16 15 14 13 13 12 12 11 11 10 10 9 9 9 8 8 8 7 7 7 6
47 45 43 41 39 37 36 35 34 33 32 31 30 29 28 27 25 24 23 22 21 20 19 19 18 17 16 16 15 14 14 13 13 12 12 11 11 11 10 10 9 9 8 8
52 51 48 47 45 43 41 40 38 37 36 35 34 33 32 30 29 28 27 26 24 23 22 21 21 20 19 19 18 17 16 16 15 15 14 14 14 13 13 13 12 12 11 11
56 55 54 52 50 48 46 45 43 41 40 39 38 37 36 35 33 31 30 30 28 26 25 25 24 23 22 22 21 21 20 19 19 18 18 17 16 16 16 15 15 15 14 14
59 59 58 56 55 53 51 49 48 46 45 44 43 42 40 39 37 36 35 34 32 30 30 29 28 27 26 25 25 24 23 23 22 22 21 21 21 20 19 19 18 18 18 17
63 62 61 60 59 58 56 55 53 52 50 49 47 46 45 43 42 41 40 38 37 35 34 34 32 31 30 29 29 28 27 26 26 25 25 25 24 24 24 24 23 23 22 22
65 65 65 65 64 62 61 59 58 57 55 54 53 51 50 48 47 46 45 43 42 40 39 39 37 36 35 34 33 32 32 31 30 30 30 29 29 29 28 28 27 27 27 26
66 66 67 68 68 67 66 65 63 62 61 59 58 57 55 54 53 51 50 48 47 46 45 44 42 41 40 39 38 37 37 36 36 35 35 34 34 34 33 33 32 32 31 31
Wind_Direction
33 33 33 33 34 36 38 39 42 44 47 49 50 50 50 52 55 56 56 57 56 54 55 55 54 52 51 50 49 50 51 51 52 53 56 53 47 44 35 12 318 280 275 267
35 34 35 36 37 38 40 42 45 48 51 52 53 53 54 56 58 58 59 58 57 57 57 55 53 51 49 50 51 51 51 52 52 52 51 47 42 38 33 22 7 344 325 303
35 35 35 37 37 40 42 44 48 50 52 55 56 56 57 58 59 59 59 58 57 57 56 54 53 51 50 51 52 52 52 51 50 49 48 46 42 38 33 26 18 7 353 337
35 34 35 35 38 41 43 45 49 51 51 54 56 56 57 57 58 58 59 59 58 57 55 53 51 50 50 51 51 52 51 50 49 47 44 41 37 34 30 26 21 13 3 352
33 33 34 35 37 39 41 44 46 49 51 54 56 56 56 56 56 57 58 57 56 55 53 52 51 50 49 50 50 49 48 46 43 40 38 35 32 30 27 24 20 16 11 4
30 30 30 32 34 37 40 43 43 46 49 53 55 55 54 54 54 54 55 54 52 51 51 50 49 48 47 47 46 44 43 41 39 36 34 32 30 28 27 25 22 18 15 11
21 24 26 27 29 32 36 37 40 42 45 48 50 51 51 51 51 50 51 50 48 47 47 47 46 45 44 43 41 39 39 37 35 34 32 31 29 28 27 25 24 22 20 18
5 11 17 19 23 27 31 33 35 38 41 45 48 49 49 47 47 46 47 46 45 44 44 44 44 44 42 40 38 37 37 35 34 33 32 30 29 28 28 27 27 26 25 25
338 352 1 7 13 18 22 26 30 33 35 38 41 41 41 40 39 39 40 39 39 39 39 40 40 40 39 38 37 37 36 36 35 34 33 32 31 30 30 31 31 31 31 33
304 316 330 342 351 0 7 12 17 20 22 23 25 26 29 29 28 28 29 31 32 35 37 38 39 39 39 37 36 36 36 35 35 35 35 34 33 33 34 35 36 36 38 40
283 290 298 310 320 329 339 348 354 360 3 6 8 9 11 14 18 20 21 23 26 30 33 35 37 38 37 37 36 36 36 36 36 36 36 36 36 36 37 38 39 40 42 45
272 277 281 286 293 299 307 316 324 332 338 342 345 349 354 358 2 7 12 16 19 21 25 27 30 32 34 35 35 35 36 36 37 37 37 38 39 40 40 42 43 44 46 49
266 269 272 275 279 283 287 292 299 307 313 320 327 330 336 341 346 351 356 1 6 11 15 18 20 22 26 28 31 32 33 35 36 37 38 39 40 42 43 45 46 48 50 52
262 264 268 270 272 275 277 280 282 286 292 298 303 308 313 319 326 333 339 345 352 358 2 7 11 14 17 20 23 26 29 31 33 35 37 39 40 42 44 46 48 50 52 53
260 263 265 267 269 270 272 274 275 276 277 281 286 291 294 298 306 314 321 328 336 343 349 355 360 3 6 10 13 16 19 23 27 30 34 36 38 40 42 45 48 50 52 54
259 261 263 265 266 268 269 270 271 271 272 273 275 278 283 285 289 295 302 309 316 323 332 340 347 352 354 356 360 4 8 11 15 20 25 29 33 35 38 41 44 47 49 52
258 259 260 262 264 265 266 267 268 268 268 269 270 272 274 276 279 282 287 292 298 303 310 319 328 335 342 345 345 348 352 357 1 5 11 17 23 27 31 34 37 41 44 48
256 257 258 259 260 262 263 264 265 266 266 266 267 268 269 271 273 274 277 280 283 287 293 298 306 315 322 328 334 336 337 339 344 349 353 358 4 12 18 22 26 29 33 37
253 254 255 256 257 259 261 262 263 264 264 265 265 266 267 268 269 270 270 272 275 278 281 285 289 294 301 308 313 318 323 326 327 330 335 339 343 347 354 1 7 12 15 19
251 252 253 254 255 256 258 259 260 262 262 263 263 264 265 266 266 267 267 268 269 272 275 277 281 284 288 292 297 301 303 307 310 312 313 316 320 323 326 329 334 339 345 349
251 251 251 252 252 253 254 256 258 259 260 261 261 262 263 264 264 265 265 266 266 268 270 272 274 277 280 282 286 290 292 295 297 298 300 301 303 303 305 307 308 310 312 314
249 250 250 250 250 251 252 253 255 256 257 258 259 260 261 261 262 262 263 264 264 265 266 268 270 271 273 276 278 280 283 286 289 291 292 292 293 294 294 294 294 295 296 296
246 248 248 248 248 248 249 250 252 253 254 255 256 257 258 259 260 260 261 262 262 263 264 265 267 268 269 271 273 275 277 279 281 282 284 285 286 287 288 288 287 287 286 287
244 244 246 246 247 247 247 248 249 250 251 252 253 254 256 257 258 258 259 260 261 261 262 263 264 265 267 268 270 271 273 274 276 277 278 278 279 280 282 282 283 283 282 281
243 242 242 243 244 245 245 245 246 247 248 249 250 252 253 254 255 256 257 258 259 259 260 261 262 263 265 266 267 268 270 271 272 273 274 275 275 276 276 276 277 277 278 279
244 242 241 241 242 242 243 243 244 244 245 246 248 249 251 252 253 254 255 256 257 258 259 260 261 262 263 264 265 266 267 269 270 271 271 272 272 273 273 273 273 274 275 275
245 243 241 240 239 240 241 242 242 243 244 245 246 248 249 250 252 253 254 255 256 257 258 259 260 261 262 263 263 265 266 267 268 269 270 270 271 271 271 271 271 271 272 272
Height
5884 5880 5877 5874 5870 5867 5863 5860 5857 5854 5851 5848 5845 5841 5838 5835 5831 5828 5825 5822 5819 5816 5813 5810 5807 5804 5802 5799 5796 5793 5791 5788 5787 5785 5783 5782 5781 5779 5778 5777 5776 5776 5775 5775
5886 5882 5879 5876 5872 5869 5866 5863 5860 5857 5854 5851 5848 5845 5842 5839 5836 5833 5830 5827 5824 5821 5818 5815 5812 5809 5806 5803 5800 5798 5795 5793 5791 5788 5786 5784 5782 5781 5779 5777 5776 5774 5773 5772
5888 5884 5881 5878 5875 5872 5869 5866 5863 5860 5858 5854 5852 5849 5846 5843 5840 5837 5835 5832 5829 5826 5823 5820 5817 5814 5811 5808 5805 5802 5799 5797 5794 5792 5789 5787 5785 5782 5780 5778 5775 5773 5771 5769
5890 5887 5884 5883 5877 5875 5871 5868 5866 5863 5861 5858 5855 5853 5850 5847 5845 5842 5839 5836 5834 5831 5828 5825 5822 5819 5816 5812 5809 5807 5804 5801 5798 5796 5793 5790 5787 5784 5781 5778 5775 5772 5770 5767
5891 5888 5886 5884 5880 5877 5874 5871 5869 5866 5864 5861 5859 5856 5854 5851 5849 5846 5843 5841 5838 5835 5832 5830 5826 5823 5820 5817 5814 5811 5808 5805 5802 5799 5796 5792 5789 5785 5782 5779 5775 5772 5769 5766
5893 5890 5888 5887 5883 5879 5878 5874 5872 5869 5866 5864 5862 5860 5858 5855 5852 5850 5847 5845 5842 5839 5837 5834 5831 5828 5825 5822 5819 5815 5812 5809 5806 5802 5799 5795 5791 5787 5784 5780 5776 5772 5769 5765
5893 5891 5890 5887 5884 5882 5880 5878 5874 5871 5869 5867 5864 5863 5861 5858 5855 5853 5850 5848 5845 5843 5840 5838 5835 5832 5829 5826 5822 5819 5816 5812 5809 5805 5801 5798 5794 5790 5786 5782 5778 5774 5769 5765
5894 5892 5892 5888 5885 5884 5882 5878 5876 5873 5871 5869 5867 5865 5863 5860 5858 5856 5853 5851 5848 5846 5844 5841 5838 5835 5833 5829 5826 5822 5819 5816 5812 5808 5804 5800 5796 5792 5788 5784 5780 5775 5771 5767
5894 5894 5891 5888 5886 5884 5882 5880 5877 5875 5873 5871 5869 5867 5865 5863 5861 5858 5856 5854 5851 5849 5846 5844 5841 5838 5836 5833 5829 5826 5822 5819 5815 5811 5807 5803 5799 5795 5791 5787 5782 5778 5774 5769
5892 5891 5889 5887 5886 5884 5882 5880 5878 5876 5874 5872 5870 5868 5866 5864 5862 5860 5858 5856 5853 5851 5848 5846 5843 5841 5838 5835 5832 5829 5825 5822 5818 5814 5811 5807 5803 5799 5795 5790 5786 5781 5777 5773
5889 5889 5887 5886 5885 5883 5882 5880 5878 5877 5875 5873 5871 5869 5867 5865 5863 5861 5859 5857 5855 5853 5850 5848 5845 5843 5840 5838 5835 5832 5828 5825 5821 5818 5814 5810 5806 5803 5799 5795 5790 5786 5782 5778
5887 5886 5885 5885 5883 5882 5881 5879 5878 5876 5875 5873 5871 5869 5868 5866 5864 5862 5860 5858 5856 5854 5852 5849 5847 5845 5842 5840 5837 5835 5831 5828 5825 5821 5818 5814 5810 5807 5803 5799 5795 5791 5787 5783
5883 5882 5882 5881 5880 5879 5878 5877 5876 5875 5873 5872 5871 5869 5867 5866 5864 5862 5860 5859 5857 5855 5853 5851 5848 5846 5844 5842 5839 5837 5834 5831 5828 5825 5821 5818 5814 5811 5807 5804 5800 5797 5793 5789
5878 5878 5878 5877 5877 5876 5875 5874 5873 5872 5871 5870 5869 5868 5866 5865 5863 5862 5860 5859 5857 5855 5853 5851 5849 5847 5845 5843 5841 5839 5836 5834 5831 5828 5825 5822 5818 5815 5812 5809 5805 5802 5799 5795
5873 5873 5873 5873 5872 5872 5871 5870 5870 5869 5868 5867 5866 5865 5864 5863 5862 5861 5859 5858 5856 5855 5853 5851 5849 5847 5845 5843 5841 5839 5837 5835 5833 5830 5828 5825 5822 5819 5816 5813 5810 5807 5804 5801
5866 5867 5866 5867 5867 5866 5866 5866 5865 5865 5864 5863 5863 5862 5861 5860 5860 5859 5857 5856 5855 5854 5852 5850 5849 5847 5845 5843 5841 5840 5838 5836 5834 5832 5829 5827 5824 5822 5819 5817 5814 5811 5809 5806
5859 5859 5859 5860 5860 5860 5860 5860 5860 5859 5859 5859 5858 5858 5857 5857 5856 5855 5855 5854 5853 5852 5850 5849 5848 5846 5844 5843 5841 5839 5838 5836 5834 5832 5830 5828 5826 5824 5822 5819 5817 5815 5812 5810
5849 5850 5850 5851 5852 5852 5852 5853 5853 5853 5853 5853 5853 5853 5852 5852 5852 5851 5851 5850 5850 5849 5848 5847 5846 5844 5843 5841 5840 5838 5837 5835 5834 5832 5830 5828 5827 5825 5823 5821 5819 5817 5815 5813
5837 5839 5840 5841 5842 5843 5844 5844 5845 5845 5845 5846 5846 5846 5846 5846 5846 5846 5846 5846 5845 5845 5844 5843 5842 5841 5840 5839 5838 5836 5835 5833 5832 5831 5829 5828 5826 5825 5823 5821 5819 5818 5816 5814
5824 5826 5828 5830 5831 5833 5834 5835 5835 5836 5837 5838 5838 5839 5839 5839 5839 5840 5840 5840 5840 5840 5839 5838 5838 5837 5836 5835 5834 5833 5832 5831 5830 5829 5827 5826 5825 5823 5822 5820 5819 5817 5816 5814
5809 5812 5814 5817 5819 5821 5822 5824 5825 5826 5827 5828 5829 5830 5830 5831 5832 5832 5832 5833 5833 5833 5833 5832 5832 5832 5831 5831 5830 5829 5828 5827 5826 5825 5824 5823 5822 5821 5820 5818 5817 5816 5815 5813
5793 5796 5799 5802 5804 5807 5809 5811 5813 5815 5816 5818 5819 5819 5820 5822 5823 5823 5824 5825 5825 5826 5825 5825 5825 5825 5825 5825 5824 5824 5823 5822 5822 5821 5820 5819 5818 5817 5816 5815 5814 5813 5812 5811
5776 5778 5781 5785 5788 5791 5794 5796 5799 5801 5803 5805 5807 5808 5809 5811 5812 5814 5814 5815 5816 5817 5817 5817 5818 5818 5818 5817 5817 5817 5816 5816 5815 5815 5814 5813 5813 5812 5811 5810 5809 5808 5808 5807
5757 5760 5763 5766 5770 5773 5777 5780 5783 5786 5788 5791 5793 5795 5797 5798 5800 5802 5803 5804 5806 5807 5807 5808 5808 5809 5809 5809 5809 5809 5809 5808 5808 5808 5807 5807 5806 5806 5805 5804 5804 5803 5802 5801
5736 5740 5744 5747 5751 5754 5758 5761 5765 5768 5772 5775 5777 5780 5782 5785 5787 5788 5790 5792 5793 5795 5796 5796 5797 5798 5799 5799 5799 5800 5800 5799 5799 5799 5799 5799 5798 5798 5797 5797 5796 5796 5795 5794
5712 5717 5722 5726 5730 5734 5738 5742 5746 5750 5753 5757 5760 5763 5766 5769 5771 5773 5775 5777 5779 5781 5782 5784 5785 5786 5787 5788 5788 5789 5789 5789 5789 5789 5789 5789 5789 5789 5788 5788 5787 5787 5787 5786
5686 5692 5698 5703 5707 5712 5716 5721 5725 5729 5733 5737 5741 5744 5747 5751 5753 5756 5758 5761 5763 5765 5767 5769 5770 5772 5773 5775 5775 5776 5777 5777 5777 5778 5778 5778 5778 5778 5777 5777 5777 5777 5777 5776